Track STARLINK-1154 now! 10-day predictions STARLINK-1154 is classified as:
1 45198U 20012W 21025.00118624 .00000902 00000-0 79408-4 0 9997 2 45198 53.0590 139.9517 0001254 77.9730 282.1400 15.06397987 52370